Location: Chandolas
(44.4033°N, 4.2533°E)
Time: 17:30:22
(UTC+00:00)

Cosmos 1697 Rocket - Pass Details

Date: 15 November 2019
Orbit: 833 x 843 km, 71.0° (Epoch: 05 December)

Event Time Altitude Azimuth Distance (km) Brightness Sun altitude
Exits shadow 04:30:32 37° 223° (SW) 1,282 3.3 -22.8°
Drops below altitude 10° 04:34:34 10° 185° (S) 2,436 5.1 -22.1°
Sets 04:37:06 0° 178° (S) 3,365 5.9 -21.6°
